Tracking 30744 objects as of 23-Jun-2025
HD Live streaming from Space Station
objects crossing your sky now

PEGASUS DEB

Track PEGASUS DEB now!
10-day predictions


NORAD ID: 24126
Int'l Code: 1994-029FZ
Perigee: 569.6 km
Apogee: 977.9 km
Inclination: 81.8 °
Period: 100.2 minutes
Semi major axis: 7144 km
RCS: 0.0531 m2 (small)
Launch date: May 19, 1994
Source: United States (US)
Launch site: AIR FORCE WESTERN TEST RANGE (AFWTR)

Note: This is SATELLITE DEBRIS
Your satellite tracking list
Your tracking list is empty




NASA's NSSDC Master Catalog

Two Line Element Set (TLE):
1 24126U 94029FZ  25173.19250485  .00006153  00000-0  12729-2 0  9999
2 24126  81.8019 328.2489 0285757 179.4634 353.5453 14.37556958502152
Source of the keplerian elements: AFSPC